STARLINK-30248 (57610 NORAD) Tracking and Keplerian Element Data

This shows tracking and keplerian element data for the satellite.

Feedback or suggestion? Click here.




ElementValue
Catalog57610
NameSTARLINK-30248
Epoch Orbit371
Epoch Day239.16667824
Epoch Year2023
RAAN77.7337
Inclination43.0008
Eccentricity0.0001088
Argument of Perigee187.2317
Mean Anonmoly70.3223
Mean Motion15.74514602
Decay Rate-0.00849183
L11 57610U 23119J 23239.16667824 -.00849183 00000+0 -62496-2 0 9997
L22 57610 43.0008 77.7337 0001088 187.2317 70.3223 15.74514602 3719



Live tracking and technical data element details for STARLINK-30248 (NORAD 57610). STARLINK-30248 can be tracked NOW for your location showing map with azimuth and elevation plus other details from your city location.







IsCatalogInMostPopularTable: catalog: 57610, numindb: 6
Update: records affected: 1



GetName: 57610 STARLINK-30248

Hit Count: updated at: Tue, 26 Sep 2023 12:14:29 GMT